Regional Weather Roundup
Issued by NWS Northern Indiana

Home | Current Version | Previous Version | Graphics & Text | Print | Product List | Glossary On
Versions: 1 2 3 4 5 6 7 8 9 10 11 12 13 14 15 16 17 18 19 20 21 22 23 24 25 26 27 28 29 30 31 32 33 34 35 36 37 38 39 40 41 42 43 44 45 46 47 48 49 50
000
ASUS43 KIWX 012010
RWRIWX

KIWX WEATHER ROUNDUP
NATIONAL WEATHER SERVICE NORTHERN INDIANA
300 PM EST SUN MAR 01 2015

NOTE: "FAIR" INDICATES FEW OR NO CLOUDS BELOW 12,000 FEET WITH NO
SIGNIFICANT WEATHER AND/OR OBSTRUCTIONS TO VISIBILITY.

* THESE STATIONS ARE NOT UNDER NWS QUALITY CONTROL. THEY ALSO MAY NOT
  REPORT WEATHER SUCH AS PRECIPITATION OR FOG.

INZ001>027-012100-
NORTHERN INDIANA

CITY           SKY/WX    TMP DP  RH WIND       PRES   REMARKS
GARY*          LGT SNOW  27  16  63 W7        30.32F WCI  19
VALPARAISO     CLOUDY    23  18  81 S8        30.30S WCI  14
MICHIGAN CITY* FLURRIES  27  14  59 SW7       30.30F WCI  19
LAPORTE*       LGT SNOW  26  19  76 SW5       30.31S WCI  20
KNOX*            N/A     23  10  58 NW6       30.30S WCI  16
SOUTH BEND     LGT SNOW  25  18  74 CALM      30.30F
ELKHART*       LGT SNOW  25  16  68 CALM      30.30F
GOSHEN         LGT SNOW  22  19  89 W3        30.28F FOG
MONTICELLO*    CLOUDY    24  21  87 W5        30.29F WCI  19
LOGANSPORT*    CLOUDY    27  23  86 SW3       30.30S FOG
ROCHESTER*     PTSUNNY   30  23  74 SW5       30.28F WCI  25
WARSAW*        LGT SNOW  27  21  80 NW3       30.28F
ANGOLA*        CLOUDY    23  18  80 NW6       30.25F WCI  16
FORT WAYNE     CLOUDY    24  21  88 CALM      30.27F FOG
HUNTINGTON*    CLOUDY    26  19  76 CALM      30.27F HAZE
PERU/GRISSOM   CLOUDY    25  22  88 W5        30.27F WCI  19
MARION*        LGT SNOW  25  22  87 W3        30.27F

$$
INZ028>050-012100-
CENTRAL INDIANA

CITY           SKY/WX    TMP DP  RH WIND       PRES   REMARKS
LAFAYETTE      CLOUDY    26  21  81 N5        30.31S WCI  20
KOKOMO*        PTSUNNY   27  21  80 CALM      30.28F
MUNCIE*        LGT SNOW  27  25  92 NW6       30.26F VSB 3/4 WCI  20
INDIANAPOLIS   LGT SNOW  30  27  88 NW3       30.27S FOG

$$
MIZ043>046-050>051-056>058-064>065-071>073-077>080-012100-
SOUTHWEST LOWER MICHIGAN

CITY           SKY/WX    TMP DP  RH WIND       PRES   REMARKS
BATTLE CREEK   MOSUNNY   24  16  71 S7        30.25F WCI  16
BENTON HARBOR  PTSUNNY   22  18  85 W10       30.29F WCI  11
COLDWATER*     LGT SNOW  24  18  78 W3        30.25F
HILLSDALE*     LGT SNOW  24  18  78 W3        30.23F
HOLLAND        LGT SNOW  24  19  81 SW13      30.28F WCI  12
GRAND RAPIDS   CLOUDY    25  15  66 W15       30.26F WCI  13
KALAMAZOO      PTSUNNY   24  15  68 SW3       30.26F
STURGIS*       LGT SNOW  21  18  86 CALM      30.26F
THREE RIVERS*  LGT SNOW  23  18  82 CALM      30.27F

$$
OHZ001>008-015>018-024>025-012100-
NORTHWEST OHIO

CITY           SKY/WX    TMP DP  RH WIND       PRES   REMARKS
WAUSEON*       LGT SNOW  21  18  86 W5        30.27F WCI  15
DEFIANCE       LGT SNOW  24  19  81 NW6       30.28F WCI  17
FINDLAY        LGT SNOW  25  21  85 W5        30.25F VSB 1   WCI  19
TOLEDO EXPRESS LGT SNOW  22  18  85 VRB5      30.27F FOG     WCI  16
TOLEDO METCALF LGT SNOW  24  20  84 W5        30.28F FOG     WCI  18
LIMA           CLOUDY    27  22  81 NW5       30.25F HAZE    WCI  22

$$
AND FOR LAKE MICHIGAN COASTAL AND OPEN LAKE BUOY OBSERVATIONS

STATION/POSITION TEMP    WIND        PRES    VSBY  WAVE
                 AIR SEA DIR/SP/G                  HT/PER
                 (F)     (DEG/KT/KT) (MB)    (MI)  (FT/S)
CALUMET HARBOR    25     180/  7/ 10 1024.8F
MICHIGAN CITY     22     240/  5/  6   N/A
SAINT JOSEPH      27     210/  6/  9 1026.1F

$$
&&


USA.gov is the U.S. government's official web portal to all federal, state and local government web resources and services.